Time,TemperatureF,DewpointF,PressureIn,WindDirection,WindDirectionDegrees,WindSpeedMPH,WindSpeedGustMPH,Humidity,HourlyPrecipIn,Conditions,Clouds,dailyrainin,SoftwareType,DateUTC
2013-07-08 00:08:00,77.8,74.1,29.93,SE,139,0.0,1.1,88,0.00,,,0.00,WUHU216DAVISVP2,2013-07-08 05:08:00,
2013-07-08 00:38:00,77.6,74.2,29.94,SSE,149,0.0,3.3,89,0.00,,,0.00,WUHU216DAVISVP2,2013-07-08 05:38:00,
2013-07-08 01:08:00,77.3,73.9,29.94,SE,138,0.0,4.4,89,0.00,,,0.00,WUHU216DAVISVP2,2013-07-08 06:08:00,
2013-07-08 01:38:00,76.8,73.4,29.94,East,96,0.0,3.3,89,0.00,,,0.00,WUHU216DAVISVP2,2013-07-08 06:38:00,
2013-07-08 02:08:00,76.4,73.0,29.94,SSE,159,2.2,4.4,89,0.00,,,0.00,WUHU216DAVISVP2,2013-07-08 07:08:00,
2013-07-08 02:38:00,76.0,72.9,29.94,SE,143,0.0,4.4,90,0.00,,,0.00,WUHU216DAVISVP2,2013-07-08 07:38:00,
2013-07-08 03:08:00,75.6,72.9,29.95,SSE,160,1.1,4.0,91,0.00,,,0.00,WUHU216DAVISVP2,2013-07-08 08:08:00,
2013-07-08 03:38:00,75.5,72.8,29.95,SSE,148,1.1,5.5,91,0.00,,,0.00,WUHU216DAVISVP2,2013-07-08 08:38:00,
2013-07-08 04:08:00,75.2,72.5,29.97,SSE,151,0.0,2.2,91,0.00,,,0.00,WUHU216DAVISVP2,2013-07-08 09:08:00,
2013-07-08 04:38:00,75.0,72.6,29.98,SSE,151,0.0,0.0,92,0.00,,,0.00,WUHU216DAVISVP2,2013-07-08 09:38:00,
2013-07-08 05:08:00,74.8,72.4,29.98,SSE,151,0.0,0.0,92,0.00,,,0.00,WUHU216DAVISVP2,2013-07-08 10:08:00,
2013-07-08 05:38:00,75.0,72.9,29.99,SSE,151,0.0,0.0,93,0.00,,,0.00,WUHU216DAVISVP2,2013-07-08 10:38:00,
2013-07-08 06:08:00,75.2,73.1,30.00,SSE,151,0.0,0.0,93,0.00,,,0.00,WUHU216DAVISVP2,2013-07-08 11:08:00,
2013-07-08 06:38:00,75.4,73.3,30.00,NE,56,0.0,2.2,93,0.00,,,0.00,WUHU216DAVISVP2,2013-07-08 11:38:00,
2013-07-08 07:08:00,75.6,73.5,30.01,NE,56,0.0,0.0,93,0.00,,,0.00,WUHU216DAVISVP2,2013-07-08 12:08:00,
2013-07-08 07:38:00,76.0,73.9,30.01,NE,56,0.0,0.0,93,0.00,,,0.00,WUHU216DAVISVP2,2013-07-08 12:38:00,
2013-07-08 08:08:00,76.7,74.0,30.02,NE,56,0.0,0.0,91,0.00,,,0.00,WUHU216DAVISVP2,2013-07-08 13:08:00,
2013-07-08 08:38:00,77.3,74.2,30.03,NE,56,0.0,0.0,90,0.00,,,0.00,WUHU216DAVISVP2,2013-07-08 13:38:00,
2013-07-08 09:08:00,78.8,75.1,30.04,ESE,111,0.0,2.2,88,0.00,,,0.00,WUHU216DAVISVP2,2013-07-08 14:08:00,
2013-07-08 09:38:00,79.8,75.0,30.05,SSE,157,2.2,4.4,85,0.00,,,0.00,WUHU216DAVISVP2,2013-07-08 14:38:00,
2013-07-08 10:08:00,80.3,75.2,30.05,SE,143,3.3,6.0,84,0.00,,,0.00,WUHU216DAVISVP2,2013-07-08 15:08:00,
2013-07-08 10:38:00,80.9,75.1,30.06,SE,142,4.4,8.8,82,0.00,,,0.00,WUHU216DAVISVP2,2013-07-08 15:38:00,
2013-07-08 11:08:00,81.8,73.8,30.06,SSE,149,2.2,7.0,76,0.00,,,0.00,WUHU216DAVISVP2,2013-07-08 16:08:00,
2013-07-08 11:38:00,82.9,74.1,30.07,ESE,105,3.3,7.0,74,0.00,,,0.00,WUHU216DAVISVP2,2013-07-08 16:38:00,
2013-07-08 12:08:00,84.7,72.5,30.06,SE,138,4.4,10.0,66,0.00,,,0.00,WUHU216DAVISVP2,2013-07-08 17:08:00,
2013-07-08 12:38:00,85.6,72.4,30.05,South,173,4.4,8.8,64,0.00,,,0.00,WUHU216DAVISVP2,2013-07-08 17:38:00,
2013-07-08 13:08:00,85.8,71.7,30.04,SE,132,1.1,7.0,62,0.00,,,0.00,WUHU216DAVISVP2,2013-07-08 18:08:00,
2013-07-08 13:38:00,87.2,72.1,30.03,South,189,3.3,8.8,60,0.00,,,0.00,WUHU216DAVISVP2,2013-07-08 18:38:00,
2013-07-08 14:08:00,88.1,70.8,30.02,SSE,166,7.7,8.8,56,0.00,,,0.00,WUHU216DAVISVP2,2013-07-08 19:08:00,
2013-07-08 14:38:00,87.5,72.3,30.02,SE,127,11.0,11.0,60,0.00,,,0.00,WUHU216DAVISVP2,2013-07-08 19:38:00,
2013-07-08 15:08:00,77.3,71.9,30.02,ENE,58,0.0,8.8,83,0.01,,,0.01,WUHU216DAVISVP2,2013-07-08 20:08:00,
2013-07-08 15:39:00,77.6,71.9,30.01,NNE,29,2.2,6.6,82,0.01,,,0.01,WUHU216DAVISVP2,2013-07-08 20:39:00,
2013-07-08 16:09:00,80.0,72.8,29.99,NNE,25,4.4,6.6,78,0.00,,,0.01,WUHU216DAVISVP2,2013-07-08 21:09:00,
2013-07-08 16:39:00,83.4,73.8,29.99,NE,43,5.5,8.0,72,0.00,,,0.01,WUHU216DAVISVP2,2013-07-08 21:39:00,
2013-07-08 17:09:00,85.7,74.7,29.99,NNW,339,4.4,14.3,69,0.00,,,0.01,WUHU216DAVISVP2,2013-07-08 22:09:00,
2013-07-08 17:39:00,86.0,75.0,29.98,NE,35,3.3,12.1,69,0.00,,,0.01,WUHU216DAVISVP2,2013-07-08 22:39:00,
2013-07-08 18:09:00,86.1,74.7,29.97,ENE,61,3.3,11.0,68,0.00,,,0.01,WUHU216DAVISVP2,2013-07-08 23:09:00,
2013-07-08 18:39:00,86.6,75.2,29.97,NE,42,5.5,9.0,68,0.00,,,0.01,WUHU216DAVISVP2,2013-07-08 23:39:00,
2013-07-08 19:10:00,79.7,72.8,30.00,ESE,123,3.3,13.2,79,0.01,,,0.02,WUHU216DAVISVP2,2013-07-09 00:10:00,
2013-07-08 19:40:00,75.9,73.2,29.99,SSW,212,0.0,2.0,91,0.08,,,0.09,WUHU216DAVISVP2,2013-07-09 00:40:00,
2013-07-08 20:10:00,76.5,73.8,30.00,ENE,74,1.1,3.3,91,0.08,,,0.10,WUHU216DAVISVP2,2013-07-09 01:10:00,
2013-07-08 20:40:00,76.5,73.8,30.00,NE,48,0.0,2.2,91,0.01,,,0.10,WUHU216DAVISVP2,2013-07-09 01:40:00,
2013-07-08 21:10:00,76.7,74.3,30.01,NE,41,0.0,1.1,92,0.00,,,0.10,WUHU216DAVISVP2,2013-07-09 02:10:00,
2013-07-08 21:40:00,77.1,74.4,30.03,NE,41,0.0,0.0,91,0.00,,,0.10,WUHU216DAVISVP2,2013-07-09 02:40:00,
2013-07-08 22:11:00,77.9,74.5,30.04,SE,143,2.2,2.2,89,0.00,,,0.10,WUHU216DAVISVP2,2013-07-09 03:11:00,
2013-07-08 22:41:00,77.9,74.5,30.06,SSE,158,1.1,3.3,89,0.00,,,0.10,WUHU216DAVISVP2,2013-07-09 03:41:00,
2013-07-08 23:11:00,77.3,73.9,30.06,South,169,0.0,2.0,89,0.00,,,0.10,WUHU216DAVISVP2,2013-07-09 04:11:00,
2013-07-08 23:41:00,77.3,73.9,30.07,SSE,154,2.2,6.0,89,0.00,,,0.10,WUHU216DAVISVP2,2013-07-09 04:41:00,